Weather History for Santa Ana, CA

Change the Weather History Date:

Monday, October 21, 2013

  Actual Average Record
Temperature  
Mean Temperature 66 °F 66 °F  
Max Temperature 72 °F 75 °F 89 °F (2003)
Min Temperature 59 °F 58 °F 54 °F (2004)
Degree Days  
Heating Degree Days 0 1  
Month to date heating degree days 9 8  
Since 1 July heating degree days 9 9  
Cooling Degree Days 1 2  
Month to date cooling degree days 90 66  
Year to date cooling degree days 1125 834  
Growing Degree Days 15 (Base 50)    
Moisture  
Dew Point 55 °F    
Average Humidity 72    
Maximum Humidity 90    
Minimum Humidity 53    
Precipitation  
Precipitation 0.00 in 0.03 in 0.02 in (2010)
Month to date precipitation 0.20 0.42  
Year to date precipitation 2.29 9.67  
Since 1 July precipitation 0.32 0.71  
Snow  
Snow 0.00 in - - ()
Month to date snowfall 0.0  
Year to date snowfall 0.0  
Since 1 July snowfall 0.0  
Snow Depth 0.00 in    
Sea Level Pressure  
Sea Level Pressure 29.95 in    
Wind  
Wind Speed 3 mph (SW)    
Max Wind Speed 9 mph    
Max Gust Speed 12 mph    
Visibility 7 miles    
Events      
T = Trace of Precipitation, MM = Missing Value Source: NWS Daily Summary

Daily Weather History Graph

Daily Weather History Graph

Search for Another Location

Airport:

Trip Planner

Search our weather history database for the weather conditions in past years. The results will help you decide how hot, cold, wet, or windy it might be!

Date:

Astronomy

Oct. 21, 2013 Rise Set
Actual Time 7:01 AM PDT 6:10 PM PDT
Civil Twilight 6:36 AM PDT 6:35 PM PDT
Nautical Twilight 6:06 AM PDT 7:04 PM PDT
Astronomical Twilight 5:38 AM PDT 7:33 PM PDT
Moon 8:13 PM PDT (10/21) 9:34 AM PDT (10/21)
Length of Visible Light 11h 59m
Length of Day
11h 08m
Waning Gibbous, 92% of the Moon is Illuminated
Oct 21
Waning Gibbous
Oct 26
Last Quarter
Nov 3
New
Nov 9
First Quarter
Nov 17
Full

Hourly Weather History & Observations

Time (PDT) Temp. Dew Point Humidity Pressure Visibility Wind Dir Wind Speed Gust Speed Precip Events Conditions
12:53 AM 61.0 °F 57.0 °F 87% 29.94 in 5.0 mi ESE 3.5 mph - N/A   Overcast
1:53 AM 61.0 °F 57.0 °F 87% 29.95 in 5.0 mi Calm Calm - N/A   Overcast
2:53 AM 62.1 °F 55.9 °F 80% 29.95 in 6.0 mi Calm Calm - N/A   Haze
3:53 AM 61.0 °F 55.0 °F 81% 29.94 in 6.0 mi Calm Calm - N/A   Haze
4:53 AM 61.0 °F 55.0 °F 81% 29.94 in 6.0 mi NE 5.8 mph - N/A   Haze
5:53 AM 60.1 °F 55.0 °F 83% 29.95 in 5.0 mi ENE 3.5 mph - N/A   Haze
6:53 AM 59.0 °F 54.0 °F 83% 29.96 in 5.0 mi Calm Calm - N/A   Haze
7:53 AM 59.0 °F 53.1 °F 81% 29.97 in 4.0 mi NNE 3.5 mph - N/A   Haze
8:28 AM 60.8 °F 53.6 °F 77% 29.98 in 4.0 mi Calm Calm - N/A   Haze
8:36 AM 60.8 °F 53.6 °F 77% 29.98 in 4.0 mi NNE 3.5 mph - N/A   Haze
8:53 AM 61.0 °F 53.1 °F 75% 29.98 in 4.0 mi Calm Calm - N/A   Haze
9:53 AM 64.0 °F 53.1 °F 67% 29.99 in 4.0 mi Calm Calm - N/A   Haze
10:53 AM 66.9 °F 53.1 °F 61% 29.98 in 5.0 mi Calm Calm - N/A   Haze
11:53 AM 70.0 °F 55.0 °F 59% 29.96 in 5.0 mi SW 6.9 mph - N/A   Haze
12:53 PM 71.1 °F 54.0 °F 55% 29.95 in 5.0 mi SSW 5.8 mph - N/A   Haze
1:53 PM 71.1 °F 54.0 °F 55% 29.92 in 5.0 mi WSW 6.9 mph - N/A   Haze
2:53 PM 71.1 °F 53.1 °F 53% 29.92 in 10.0 mi WSW 5.8 mph - N/A   Clear
3:53 PM 70.0 °F 54.0 °F 57% 29.91 in 10.0 mi Variable 5.8 mph - N/A   Clear
4:53 PM 69.1 °F 55.0 °F 61% 29.91 in 10.0 mi WSW 5.8 mph - N/A   Clear
5:53 PM 66.0 °F 55.9 °F 70% 29.91 in 10.0 mi SW 8.1 mph - N/A   Clear
6:53 PM 64.0 °F 57.0 °F 78% 29.93 in 10.0 mi WSW 4.6 mph - N/A   Partly Cloudy
7:53 PM 63.0 °F 57.0 °F 81% 29.95 in 10.0 mi SW 3.5 mph - N/A   Partly Cloudy
8:53 PM 63.0 °F 57.0 °F 81% 29.96 in 10.0 mi SW 3.5 mph - N/A   Partly Cloudy
9:53 PM 63.0 °F 57.0 °F 81% 29.98 in 10.0 mi Calm Calm - N/A   Partly Cloudy
10:53 PM 62.1 °F 57.0 °F 84% 29.99 in 9.0 mi Calm Calm - N/A   Partly Cloudy
11:53 PM 61.0 °F 55.9 °F 83% 29.98 in 8.0 mi Calm Calm - N/A   Clear